Tracking 20041 objects as of 22-Nov-2019
Live streaming from Space Station
objects crossing your sky now

SL-24 DEB

Track SL-24 DEB now!
10-day predictions


NORAD ID: 40048
Int'l Code: 2014-033AQ
Perigee: 424.2 km
Apogee: 439.1 km
Inclination: 98.0 °
Period: 93.1 minutes
Semi major axis: 6802 km
RCS: Unknown
Launch date: June 19, 2014
Source: Commonwealth of Independent States (former USSR) (CIS)
Launch site: Orenburg, Russia (OREN)

Note: This is SATELLITE DEBRIS
aabbcc
Your satellite tracking list
Your tracking list is empty




NASA's NSSDC Master Catalog

Two Line Element Set (TLE):
1 40048U 14033AQ  19326.15257527  .00020506  00000-0  40208-3 0  9992
2 40048  97.9972  16.8753 0010951 330.8077  29.2558 15.47339568301753
Source of the keplerian elements: AFSPC